This is the latest recevied weather packets stored in our database for station/object G4ZMG. If no packets are shown the sender has not sent any weather packets the latest 10 day(s).
| Time | Temp. | Humidity | Pressure | Rain* | Wind** | Luminosity | Snow |
|---|---|---|---|---|---|---|---|
| 1777824042 | 16.67° C | 71% | 1007.7 hPa | 0 mm | - | 169 W/m² | - |
| 1777823434 | 16.67° C | 73% | 1007.7 hPa | 0 mm | - | 385 W/m² | - |
| 1777822825 | 16.67° C | 74% | 1007.7 hPa | 0 mm | - | 267 W/m² | - |
| 1777822240 | 16.67° C | 74% | 1007.7 hPa | 0 mm | - | 388 W/m² | - |
| 1777821622 | 16.67° C | 74% | 1007.8 hPa | 0 mm | - | 206 W/m² | - |
| 1777821045 | 16.67° C | 73% | 1007.8 hPa | 0 mm | - | 248 W/m² | - |
| 1777820421 | 16.67° C | 75% | 1007.8 hPa | 0 mm | - | 362 W/m² | - |
| 1777819805 | 16.11° C | 75% | 1007.8 hPa | 0 mm | - | 278 W/m² | - |
| 1777819242 | 16.11° C | 75% | 1007.8 hPa | 0 mm | - | 197 W/m² | - |
| 1777818624 | 16.11° C | 75% | 1007.8 hPa | 0 mm | - | 244 W/m² | - |
| 1777818009 | 16.67° C | 74% | 1007.9 hPa | 0 mm | - | 322 W/m² | - |
| 1777817403 | 16.11° C | 74% | 1008 hPa | 0 mm | - | 348 W/m² | - |
| 1777816823 | 16.11° C | 75% | 1008 hPa | 0 mm | - | 459 W/m² | - |
| 1777816206 | 16.11° C | 75% | 1007.9 hPa | 0 mm | - | 352 W/m² | - |
| 1777815641 | 16.11° C | 76% | 1008 hPa | 0 mm | - | 376 W/m² | - |
| 1777815028 | 16.67° C | 75% | 1008.1 hPa | 0 mm | - | 341 W/m² | - |
| 1777814406 | 16.11° C | 76% | 1008.3 hPa | 0 mm | - | 471 W/m² | - |
| 1777813803 | 16.11° C | 73% | 1008.4 hPa | 0 mm | - | 366 W/m² | - |
| 1777813241 | 16.11° C | 75% | 1008.3 hPa | 0 mm | - | 360 W/m² | - |
| 1777812621 | 16.11° C | 74% | 1008.2 hPa | 0 mm | - | 390 W/m² | - |
| 1777812003 | 15.56° C | 75% | 1008.3 hPa | 0 mm | - | 315 W/m² | - |
| 1777811438 | 15.56° C | 75% | 1008.3 hPa | 0 mm | - | 304 W/m² | - |
| 1777810820 | 15.56° C | 75% | 1008.3 hPa | 0 mm | - | 169 W/m² | - |
| 1777810206 | 15.56° C | 73% | 1008.3 hPa | 0 mm | - | 109 W/m² | - |
| 1777809612 | 15.56° C | 73% | 1008.2 hPa | 0 mm | - | 186 W/m² | - |
* Rain latest hour (hover to see other rain measurements)
** Current wind speed in m/s (hover to see current wind gust speed)